Hourly Weather Klatka

Today, 27 July, Tuesday

Time Temperature Precipitation Wind Pressure Humidity
00:00 +20°C° 0.5 mm 2 mps 744 mmHg 85%
01:00 +19°C° 0.5 mm 3 mps 745 mmHg 93%
02:00 +19°C° 0.6 mm 2 mps 745 mmHg 93%
03:00 +19°C° 0.6 mm 2 mps 745 mmHg 93%
04:00 +19°C° 0.6 mm 2 mps 745 mmHg 93%
05:00 +20°C° 0 mm 2 mps 745 mmHg 90%
06:00 +21°C° 0 mm 2 mps 745 mmHg 86%
07:00 +22°C° 0 mm 3 mps 745 mmHg 82%
08:00 +24°C° 0.1 mm 3 mps 746 mmHg 74%
09:00 +26°C° 0.1 mm 3 mps 746 mmHg 66%
10:00 +27°C° 0.1 mm 3 mps 746 mmHg 58%
11:00 +28°C° 0 mm 3 mps 746 mmHg 54%
12:00 +29°C° 0 mm 3 mps 746 mmHg 50%
13:00 +30°C° 0 mm 3 mps 746 mmHg 46%
14:00 +30°C° 0 mm 3 mps 746 mmHg 44%
15:00 +31°C° 0 mm 3 mps 746 mmHg 42%
16:00 +31°C° 0 mm 3 mps 745 mmHg 40%
17:00 +29°C° 0 mm 2 mps 745 mmHg 46%
18:00 +28°C° 0 mm 2 mps 745 mmHg 51%
19:00 +27°C° 0 mm 2 mps 745 mmHg 57%
20:00 +26°C° 0 mm 1 mps 745 mmHg 60%
21:00 +24°C° 0 mm 1 mps 745 mmHg 63%
22:00 +23°C° 0 mm 1 mps 746 mmHg 66%
23:00 +23°C° 0 mm 1 mps 746 mmHg 67%

Tomorrow, 28 July, Wednesday

Time Temperature Precipitation Wind Pressure Humidity
00:00 +22°C° 0 mm 1 mps 745 mmHg 69%
01:00 +22°C° 0 mm 1 mps 745 mmHg 70%
02:00 +22°C° 0.1 mm 1 mps 745 mmHg 71%
03:00 +22°C° 0.1 mm 1 mps 745 mmHg 72%
04:00 +21°C° 0.1 mm 1 mps 745 mmHg 73%
05:00 +22°C° 0 mm 1 mps 745 mmHg 72%
06:00 +23°C° 0 mm 1 mps 745 mmHg 71%
07:00 +24°C° 0 mm 1 mps 745 mmHg 70%
08:00 +24°C° 0.2 mm 2 mps 745 mmHg 67%
09:00 +25°C° 0.2 mm 2 mps 745 mmHg 65%
10:00 +26°C° 0.2 mm 2 mps 745 mmHg 62%
11:00 +26°C° 0.1 mm 2 mps 745 mmHg 65%
12:00 +25°C° 0.1 mm 2 mps 745 mmHg 69%
13:00 +25°C° 0.1 mm 2 mps 745 mmHg 72%
14:00 +25°C° 0 mm 2 mps 745 mmHg 68%
15:00 +26°C° 0 mm 2 mps 745 mmHg 65%
16:00 +27°C° 0 mm 1 mps 745 mmHg 61%
17:00 +25°C° 0.3 mm 2 mps 745 mmHg 69%
18:00 +24°C° 0.3 mm 3 mps 745 mmHg 76%
19:00 +21°C° 0.3 mm 4 mps 745 mmHg 83%
20:00 +21°C° 0.4 mm 3 mps 745 mmHg 86%
21:00 +20°C° 0.4 mm 3 mps 746 mmHg 89%
22:00 +19°C° 0.4 mm 2 mps 746 mmHg 92%
23:00 +18°C° 0 mm 2 mps 746 mmHg 92%

Day after tomorrow, 29 July, Thursday

Time Temperature Precipitation Wind Pressure Humidity
00:00 +18°C° 0 mm 3 mps 746 mmHg 91%
01:00 +17°C° 0 mm 3 mps 746 mmHg 90%
02:00 +16°C° 0 mm 3 mps 746 mmHg 90%
03:00 +16°C° 0 mm 3 mps 746 mmHg 90%
04:00 +16°C° 0 mm 2 mps 746 mmHg 90%
05:00 +17°C° 0 mm 3 mps 746 mmHg 85%
06:00 +18°C° 0 mm 3 mps 746 mmHg 80%
07:00 +20°C° 0 mm 3 mps 746 mmHg 75%
08:00 +22°C° 0 mm 4 mps 746 mmHg 67%
09:00 +23°C° 0 mm 4 mps 746 mmHg 59%
10:00 +26°C° 0 mm 4 mps 746 mmHg 51%
11:00 +27°C° 0 mm 5 mps 746 mmHg 47%
12:00 +28°C° 0 mm 5 mps 745 mmHg 43%
13:00 +29°C° 0 mm 6 mps 745 mmHg 39%
14:00 +29°C° 0 mm 5 mps 745 mmHg 38%
15:00 +29°C° 0 mm 5 mps 745 mmHg 38%
16:00 +28°C° 0 mm 5 mps 745 mmHg 37%
17:00 +27°C° 0 mm 3 mps 744 mmHg 42%
18:00 +26°C° 0 mm 2 mps 744 mmHg 46%
19:00 +25°C° 0 mm 1 mps 744 mmHg 51%
20:00 +24°C° 0 mm 1 mps 744 mmHg 53%
21:00 +23°C° 0 mm 2 mps 744 mmHg 56%
22:00 +21°C° 0 mm 2 mps 744 mmHg 58%
23:00 +21°C° 0 mm 2 mps 744 mmHg 61%

30 July, Friday

Time Temperature Precipitation Wind Pressure Humidity
00:00 +20°C° 0 mm 2 mps 744 mmHg 63%
01:00 +19°C° 0 mm 2 mps 744 mmHg 66%
02:00 +20°C° 0 mm 2 mps 744 mmHg 64%
03:00 +20°C° 0 mm 2 mps 743 mmHg 63%
04:00 +20°C° 0 mm 2 mps 743 mmHg 61%
05:00 +21°C° 0 mm 2 mps 743 mmHg 62%
06:00 +21°C° 0 mm 2 mps 744 mmHg 62%
07:00 +21°C° 0 mm 2 mps 744 mmHg 62%
08:00 +24°C° 0 mm 2 mps 744 mmHg 58%
09:00 +25°C° 0 mm 2 mps 743 mmHg 54%
10:00 +26°C° 0 mm 3 mps 743 mmHg 50%
11:00 +27°C° 0 mm 3 mps 743 mmHg 48%
12:00 +28°C° 0 mm 3 mps 743 mmHg 45%
13:00 +29°C° 0 mm 3 mps 742 mmHg 42%
14:00 +29°C° 0 mm 3 mps 742 mmHg 41%
15:00 +30°C° 0 mm 3 mps 742 mmHg 39%
16:00 +30°C° 0 mm 3 mps 742 mmHg 38%
17:00 +28°C° 0 mm 3 mps 741 mmHg 43%
18:00 +26°C° 0 mm 3 mps 741 mmHg 49%
19:00 +25°C° 0 mm 2 mps 741 mmHg 55%
20:00 +24°C° 0 mm 2 mps 741 mmHg 56%
21:00 +23°C° 0 mm 2 mps 741 mmHg 57%
22:00 +21°C° 0 mm 2 mps 741 mmHg 58%
23:00 +21°C° 0 mm 1 mps 741 mmHg 59%

31 July, Saturday

Time Temperature Precipitation Wind Pressure Humidity
00:00 +21°C° 0 mm 1 mps 741 mmHg 59%
01:00 +21°C° 0 mm 1 mps 741 mmHg 60%
02:00 +21°C° 0 mm 1 mps 741 mmHg 61%
03:00 +20°C° 0 mm 1 mps 741 mmHg 61%
04:00 +20°C° 0 mm 1 mps 741 mmHg 62%
05:00 +21°C° 0 mm 1 mps 741 mmHg 62%
06:00 +21°C° 0 mm 2 mps 741 mmHg 61%
07:00 +23°C° 0 mm 2 mps 741 mmHg 61%
08:00 +24°C° 0 mm 3 mps 741 mmHg 57%
09:00 +25°C° 0 mm 4 mps 741 mmHg 54%
10:00 +27°C° 0 mm 6 mps 741 mmHg 51%
11:00 +27°C° 0 mm 6 mps 741 mmHg 49%
12:00 +27°C° 0 mm 6 mps 741 mmHg 47%
13:00 +28°C° 0 mm 6 mps 741 mmHg 45%
14:00 +27°C° 0.1 mm 6 mps 741 mmHg 48%
15:00 +26°C° 0.1 mm 5 mps 742 mmHg 50%
16:00 +25°C° 0.1 mm 5 mps 742 mmHg 52%
17:00 +23°C° 0 mm 4 mps 742 mmHg 52%
18:00 +23°C° 0 mm 4 mps 742 mmHg 51%
19:00 +22°C° 0 mm 3 mps 742 mmHg 51%
20:00 +21°C° 0 mm 3 mps 742 mmHg 54%
21:00 +19°C° 0 mm 3 mps 742 mmHg 57%
22:00 +18°C° 0 mm 2 mps 743 mmHg 61%
23:00 +18°C° 0 mm 2 mps 743 mmHg 61%

1 August, Sunday

Time Temperature Precipitation Wind Pressure Humidity
00:00 +18°C° 0 mm 2 mps 743 mmHg 61%
01:00 +18°C° 0 mm 2 mps 743 mmHg 61%
02:00 +18°C° 0 mm 2 mps 743 mmHg 64%
03:00 +17°C° 0 mm 2 mps 743 mmHg 68%
04:00 +16°C° 0 mm 2 mps 743 mmHg 71%
05:00 +17°C° 0 mm 3 mps 743 mmHg 69%
06:00 +18°C° 0 mm 3 mps 743 mmHg 67%
07:00 +19°C° 0 mm 3 mps 744 mmHg 66%
08:00 +20°C° 0 mm 3 mps 743 mmHg 60%
09:00 +22°C° 0 mm 3 mps 743 mmHg 55%
10:00 +23°C° 0 mm 4 mps 743 mmHg 50%
11:00 +24°C° 0 mm 3 mps 743 mmHg 49%
12:00 +24°C° 0 mm 3 mps 743 mmHg 49%
13:00 +24°C° 0 mm 3 mps 743 mmHg 48%
14:00 +24°C° 0 mm 2 mps 742 mmHg 47%
15:00 +25°C° 0 mm 2 mps 742 mmHg 46%
16:00 +25°C° 0 mm 2 mps 742 mmHg 46%
17:00 +24°C° 0 mm 2 mps 742 mmHg 49%
18:00 +23°C° 0 mm 2 mps 742 mmHg 53%
19:00 +21°C° 0 mm 2 mps 742 mmHg 56%
20:00 +20°C° 0.1 mm 2 mps 742 mmHg 59%
21:00 +19°C° 0.1 mm 2 mps 742 mmHg 61%
22:00 +19°C° 0.1 mm 2 mps 742 mmHg 64%
23:00 +18°C° 0 mm 3 mps 742 mmHg 69%
Show more